Погода в Ики-Бухусе

Россия / Республика Калмыкия     48°02′33″N   45°13′07″E
темп.,
°C
ветер,
м/с
пор.,
м/с
влажн.,
%
обл.,
%
осадки,
мм/ч
давл.,
гПа
погр.,
м
26 октября, вт
вт2600:00+2ссз48625 0.0 1031209
03:00+1ссз366926 0.0 1032139
06:000сз357181 0.0 1032127
09:00+3ссз34585 0.0 1033433
12:00+6ссз22489 0.0 10331095
15:00+7ссз22425 0.0 10321149
18:00+4сз22481 0.0 103317
21:00+3сз11525 0.0 103310
27 октября, ср
ср2700:00+2з22545 0.0 103310
03:00+1зюз22575 0.0 103210
06:00+1юз22575 0.0 103210
09:00+5ююз33485 0.0 1032280
12:00+9ююз44375 0.0 1030802
15:00+10ююз44335 0.0 1028932
18:00+6ю45435 0.0 102768
21:00+5ююз46480 0.0 102692
28 октября, чт
чт2800:00+4ююз46510 0.0 1026103
03:00+3ююз45593 0.0 102478
06:00+2ююз45675 0.0 102478
09:00+5юз4554100 0.0 1024231
12:00+9зюз4539100 0.0 1023609
15:00+10зюз3534100 0.0 1021775
18:00+9зюз3538100 0.0 102195
21:00+7зюз474397 0.0 1020160
29 октября, пт
пт2900:00+6зюз4105197 0.0 1019213
03:00+6зюз51063100 0.2 1018319
06:00+7зюз51181100 1.8 1017496
09:00+8зсз61089100 2.8 1018493
12:00+9сз61089100 0.2 1019602
15:00+9ссз91177100 0.3 10211091
18:00+6с91374100 0.1 1025924
21:00+5с8136582 0.1 1028766
30 октября, сб
сб3000:00+4с71158100 0.0 1030649
03:00+1с6116425 0.0 1032404
06:000с6968100 0.0 1033329
09:00+2с5765100 0.0 1035336
12:00+5ссв4563100 0.0 1036436
15:00+8св345836 0.0 1036692
18:00+6ссв346736 0.0 103766
21:00+4св33704 0.0 103828